User: anonymous   Login
Location: Goheenville
(40.9070°N, 79.3720°W)
Time: 14:44:25
(UTC-04:00)
Language:

Cosmos 1727 Rocket - Orbit

View from above orbital plane
View from above orbital plane
View from above satellite
View from above satellite

Ground track
Ground track

The orbit data is extracted from the following two-line orbital elements,

1 16511U 86008B   17206.13002818 +.00000112 +00000-0 +10000-3 0  9993
2 16511 082.9437 191.7796 0024273 173.1855 235.6036 13.75815226581231
Epoch (UTC): 25 July 2017 03:07:14
Eccentricity: 0.0024273
inclination: 82.9437°
perigee height: 961 km
apogee height: 996 km
right ascension of ascending node: 191.7796°
argument of perigee: 173.1855°
revolutions per day: 13.75815226
mean anomaly at epoch: 235.6036°
orbit number at epoch: 58123

The dashed part of the orbit path shows where the satellite is in the earth's shadow,  

DLR